Location: Newark
(44.3867°N, 6.6531°E)
Time: 18:36:48
(UTC+00:00)

N. Korean satellite - Visible Passes

Search period start: 19 January 2020 00:00
Search period end: 29 January 2020 00:00
Orbit: 454 x 508 km, 97.2° (Epoch: 19 January)

Date Brightness Start Highest point End Pass type
(mag) Time Alt. Az. Time Alt. Az. Time Alt. Az.
19 Jan 7.3 05:11:03 10° NNE 05:14:29 52° E 05:17:58 10° S visible
19 Jan 9.5 17:22:07 10° SW 17:24:42 20° W 17:27:18 10° NW visible
20 Jan 8.9 04:45:56 10° NE 04:48:55 25° E 04:51:55 10° SSE visible
20 Jan 7.8 06:19:28 10° NNW 06:22:11 21° WNW 06:24:55 10° WSW visible
20 Jan 8.0 16:55:50 10° S 16:59:05 41° W 17:02:21 10° NNW visible
21 Jan 9.9 04:21:33 10° ENE 04:23:14 13° E 04:24:56 10° ESE visible
21 Jan 6.9 05:53:29 10° N 05:56:50 41° WNW 06:00:12 10° SW visible
22 Jan 6.5 05:27:49 10° NNE 05:31:23 90° S 05:34:58 10° SSW visible
22 Jan 9.9 17:40:11 10° WSW 17:41:42 12° W 17:43:14 10° WNW visible
23 Jan 7.9 05:02:28 10° NNE 05:05:52 41° E 05:09:17 10° S visible
23 Jan 9.1 17:13:09 10° SSW 17:16:01 25° W 17:18:54 10° NW visible
24 Jan 9.3 04:37:31 10° NE 04:40:15 20° E 04:43:00 10° SE visible
24 Jan 7.5 06:10:37 10° NNW 06:13:37 26° WNW 06:16:40 10° SW visible
25 Jan 10.2 04:13:55 10° E 04:14:33 10° E 04:15:11 10° E visible
25 Jan 6.6 05:44:44 10° N 05:48:14 53° WNW 05:51:46 10° SSW visible
26 Jan 6.8 05:19:11 10° NNE 05:22:46 70° ESE 05:26:23 10° S visible
26 Jan 9.7 17:30:50 10° SW 17:32:59 16° W 17:35:09 10° NW visible
27 Jan 8.4 04:53:56 10° NNE 04:57:12 32° E 05:00:31 10° SSE visible
27 Jan 8.7 17:04:14 10° SSW 17:07:19 31° W 17:10:27 10° NNW visible
28 Jan 9.6 04:29:10 10° NE 04:31:34 17° E 04:33:58 10° SE visible
28 Jan 7.2 06:01:46 10° N 06:05:02 33° WNW 06:08:20 10° SW visible
